Flag for Czech Republic Weather past 2 weeks in Plzen, Czech Republic

Now
65 °F

Passing clouds.


Feels Like: 65 °F
Forecast: 37 / 58 °F
Wind: 7 mph from Northwest

Location: Kocelovice

Current Time: Apr 21, 2015 at 4:19:21 PM

Latest Report: Apr 21, 2015 at 3:00 PM


Visibility: 47 mi

Pressure: 30.22 "Hg

Humidity: 26%

Dew point: 29 °F

Location of PlzenLocation

Historic Weather in Plzen — Graph

°F

Plzen temperature yesterday

Maximum temperature yesterday: 58 °F (at 5:00 PM)
Minimum temperature yesterday: 37 °F (at 4:00 AM)
Average temperature yesterday: 48 °F

Past Weeks' High & Low Weather Summary

 TemperatureHumidityPressure
High70 °F (Apr 15, 4:00 PM)97% (Apr 6, 5:00 PM)30.63 "Hg (Apr 6, 5:00 PM)
Low27 °F (Apr 7, 7:00 AM)26% (Apr 15, 5:00 PM)29.83 "Hg (Apr 16, 7:00 PM)
Average48 °F62%30.25 "Hg
* Reported Apr 6 3:00 PM — Apr 21 3:00 PM, Plzen, Weather by CustomWeather, © 2015

Note: Actual official high and low records may vary slightly from our data, if they occured in-between our weather recording intervals... More about our weather records

Advertising

Plzen weather history for previous 24 hours

 ConditionsComfort  
Time TempWeatherWind HumidityBarometerVisibility
3:00 PM
Tue, Apr 21
65 °FPassing clouds.7 mph26%30.22 "Hg47 mi
2:00 PM63 °FPassing clouds.7 mph29%30.24 "Hg47 mi
1:00 PM60 °FPassing clouds.7 mph34%30.27 "Hg47 mi
12:00 PM57 °FPassing clouds.8 mph39%30.30 "Hg47 mi
11:00 AM53 °FPassing clouds.7 mph48%30.32 "Hg47 mi
10:00 AM51 °FPassing clouds.7 mph54%30.32 "Hg47 mi
9:00 AM47 °FPassing clouds.6 mph59%30.34 "Hg47 mi
8:00 AM44 °FPassing clouds.5 mph69%30.35 "Hg43 mi
7:00 AM40 °FQuite cool.3 mph73%30.37 "Hg12 mi
6:00 AM37 °FChilly.2 mph84%30.35 "Hg12 mi
4:00 AM42 °FQuite cool.2 mph67%30.33 "Hg12 mi
3:00 AM40 °FChilly.N/A75%30.33 "Hg12 mi
2:00 AM45 °FQuite cool.2 mph68%30.31 "Hg12 mi
1:00 AM46 °FCool.2 mph65%30.29 "Hg12 mi
12:00 AM47 °FCool.3 mph61%30.28 "Hg12 mi
11:00 PM
Mon, Apr 20
47 °FCool.3 mph61%30.27 "Hg12 mi
10:00 PM49 °FOvercast.2 mph56%30.25 "Hg37 mi
9:00 PM52 °FOvercast.3 mph52%30.23 "Hg40 mi
8:00 PM54 °FOvercast.3 mph46%30.20 "Hg43 mi
7:00 PM56 °FScattered clouds.7 mph40%30.18 "Hg43 mi
6:00 PM58 °FPassing clouds.6 mph36%30.16 "Hg43 mi
5:00 PM58 °FPassing clouds.6 mph39%30.16 "Hg40 mi
4:00 PM58 °FPassing clouds.7 mph36%30.15 "Hg37 mi
Weather by CustomWeather, © 2015

See weather overviewHow to use our weather pages